"Sample Date","Sample Time","Sample Value","Units","Flow Rate","Sample Interval","Number Channels","Micron Size 0","Counts/Channel 0","Micron Size 1","Counts/Channel 1","Micron Size 2","Counts/Channel 2","Micron Size 3","Counts/Channel 3","Micron Size 4","Counts/Channel 4","Micron Size 5","Counts/Channel 5","Micron Size 6","Counts/Channel 6","Micron Size 7","Counts/Channel 7","Micron Size 8","Counts/Channel 8","Micron Size 9","Counts/Channel 9","Micron Size 10","Counts/Channel 10","Micron Size 11","Counts/Channel 11","Micron Size 12","Counts/Channel 12","Micron Size 13","Counts/Channel 13","Micron Size 14","Counts/Channel 14","Micron Size 15","Counts/Channel 15","Micron Size 16","Counts/Channel 16","Micron Size 17","Counts/Channel 17","Micron Size 18","Counts/Channel 18","Micron Size 19","Counts/Channel 19","Micron Size 20","Counts/Channel 20","Micron Size 21","Counts/Channel 21","Micron Size 22","Counts/Channel 22","Micron Size 23","Counts/Channel 23","Micron Size 24","Counts/Channel 24","Micron Size 25","Counts/Channel 25","Micron Size 26","Counts/Channel 26","Micron Size 27","Counts/Channel 27","Micron Size 28","Counts/Channel 28","Micron Size 29","Counts/Channel 29","Micron Size 30","Counts/Channel 30","Micron Size 31","Counts/Channel 31"
"04/04/08","14:00:04",22544.000,"cc",28313.445,6.00,6,0.100,19005.000,0.200,1349.000,0.300,868.000,0.500,975.000,1.000,347.000,5.000,0
"04/04/08","14:00:10",22576.000,"cc",28262.963,6.00,6,0.100,19032.000,0.200,1369.000,0.300,863.000,0.500,957.000,1.000,355.000,5.000,0
"04/04/08","14:00:16",22274.000,"cc",28266.695,6.00,6,0.100,18798.000,0.200,1329.000,0.300,847.000,0.500,977.000,1.000,323.000,5.000,0
"04/04/08","14:00:22",22131.000,"cc",28372.744,6.00,6,0.100,18603.000,0.200,1415.000,0.300,859.000,0.500,931.000,1.000,323.000,5.000,0
"04/04/08","14:00:28",22301.000,"cc",28342.859,6.00,6,0.100,18883.000,0.200,1320.000,0.300,826.000,0.500,961.000,1.000,311.000,5.000,0
"04/04/08","14:00:34",22140.000,"cc",28283.262,6.00,6,0.100,18564.000,0.200,1355.000,0.300,902.000,0.500,966.000,1.000,353.000,5.000,0
"04/04/08","14:00:40",22428.000,"cc",28379.756,6.00,6,0.100,18833.000,0.200,1368.000,0.300,873.000,0.500,1008.000,1.000,346.000,5.000,0
"04/04/08","14:00:46",22198.000,"cc",28321.773,6.00,6,0.100,18748.000,0.200,1312.000,0.300,868.000,0.500,956.000,1.000,314.000,5.000,0
"04/04/08","14:00:52",22186.000,"cc",28307.416,6.00,6,0.100,18695.000,0.200,1399.000,0.300,825.000,0.500,947.000,1.000,320.000,5.000,0
"04/04/08","14:00:58",21857.000,"cc",28280.684,6.00,6,0.100,18421.000,0.200,1292.000,0.300,859.000,0.500,958.000,1.000,327.000,5.000,0
"04/04/08","14:01:04",22253.000,"cc",28341.414,6.00,6,0.100,18769.000,0.200,1353.000,0.300,863.000,0.500,941.000,1.000,327.000,5.000,0
"04/04/08","14:01:10",21696.000,"cc",28263.604,6.00,6,0.100,18400.000,0.200,1292.000,0.300,822.000,0.500,878.000,1.000,304.000,5.000,0
"04/04/08","14:01:16",21818.000,"cc",28303.291,6.00,6,0.100,18794.000,0.200,1187.000,0.300,724.000,0.500,817.000,1.000,296.000,5.000,0
"04/04/08","14:01:22",22161.000,"cc",28303.875,6.00,6,0.100,18781.000,0.200,1282.000,0.300,824.000,0.500,939.000,1.000,335.000,5.000,0
"04/04/08","14:01:28",22287.000,"cc",28370.279,6.00,6,0.100,18995.000,0.200,1280.000,0.300,796.000,0.500,890.000,1.000,326.000,5.000,0
"04/04/08","14:01:34",22551.000,"cc",28300.455,6.00,6,0.100,18999.000,0.200,1412.000,0.300,872.000,0.500,928.000,1.000,340.000,5.000,0
"04/04/08","14:01:40",21819.000,"cc",28332.445,6.00,6,0.100,18569.000,0.200,1241.000,0.300,830.000,0.500,876.000,1.000,303.000,5.000,0
"04/04/08","14:01:46",22143.000,"cc",28302.459,6.00,6,0.100,18757.000,0.200,1303.000,0.300,830.000,0.500,941.000,1.000,312.000,5.000,0
"04/04/08","14:01:52",22029.000,"cc",28272.393,6.00,6,0.100,18546.000,0.200,1341.000,0.300,820.000,0.500,995.000,1.000,327.000,5.000,0
"04/04/08","14:01:58",22304.000,"cc",28369.799,6.00,6,0.100,18800.000,0.200,1377.000,0.300,856.000,0.500,937.000,1.000,334.000,5.000,0
"04/04/08","14:02:04",22490.000,"cc",28325.945,6.00,6,0.100,19026.000,0.200,1297.000,0.300,852.000,0.500,967.000,1.000,348.000,5.000,0
"04/04/08","14:02:10",22288.000,"cc",28324.227,6.00,6,0.100,18808.000,0.200,1311.000,0.300,867.000,0.500,948.000,1.000,354.000,5.000,0
"04/04/08","14:02:16",22402.000,"cc",28297.318,6.00,6,0.100,18938.000,0.200,1345.000,0.300,850.000,0.500,961.000,1.000,308.000,5.000,0
"04/04/08","14:02:22",21869.000,"cc",28338.865,6.00,6,0.100,18430.000,0.200,1327.000,0.300,856.000,0.500,950.000,1.000,306.000,5.000,0
"04/04/08","14:02:28",22270.000,"cc",28320.203,6.00,6,0.100,18626.000,0.200,1361.000,0.300,911.000,0.500,1017.000,1.000,355.000,5.000,0
"04/04/08","14:02:34",22481.000,"cc",28317.793,6.00,6,0.100,18838.000,0.200,1370.000,0.300,916.000,0.500,1015.000,1.000,342.000,5.000,0
"04/04/08","14:02:40",22633.000,"cc",28269.869,6.00,6,0.100,18766.000,0.200,1502.000,0.300,924.000,0.500,1045.000,1.000,396.000,5.000,0
"04/04/08","14:02:46",22651.000,"cc",28314.979,6.00,6,0.100,18890.000,0.200,1408.000,0.300,927.000,0.500,1058.000,1.000,368.000,5.000,0
"04/04/08","14:02:52",22441.000,"cc",28301.990,6.00,6,0.100,18847.000,0.200,1429.000,0.300,830.000,0.500,963.000,1.000,372.000,5.000,0
"04/04/08","14:02:58",22250.000,"cc",28395.191,6.00,6,0.100,18616.000,0.200,1390.000,0.300,883.000,0.500,1007.000,1.000,354.000,5.000,0
"04/04/08","14:03:04",22502.000,"cc",28347.969,6.00,6,0.100,18923.000,0.200,1386.000,0.300,861.000,0.500,1002.000,1.000,330.000,5.000,0
"04/04/08","14:03:10",22241.000,"cc",28266.813,6.00,6,0.100,18958.000,0.200,1284.000,0.300,804.000,0.500,885.000,1.000,310.000,5.000,0
"04/04/08","14:03:16",22241.000,"cc",28350.336,6.00,6,0.100,18862.000,0.200,1350.000,0.300,787.000,0.500,961.000,1.000,281.000,5.000,0
"04/04/08","14:03:22",22172.000,"cc",28338.221,6.00,6,0.100,18897.000,0.200,1266.000,0.300,803.000,0.500,884.000,1.000,322.000,5.000,0
"04/04/08","14:03:28",22244.000,"cc",28211.826,6.00,6,0.100,18737.000,0.200,1362.000,0.300,849.000,0.500,944.000,1.000,352.000,5.000,0
"04/04/08","14:03:34",22062.000,"cc",28334.520,6.00,6,0.100,18672.000,0.200,1294.000,0.300,824.000,0.500,941.000,1.000,331.000,5.000,0
"04/04/08","14:03:40",22313.000,"cc",28279.424,6.00,6,0.100,18768.000,0.200,1387.000,0.300,858.000,0.500,968.000,1.000,332.000,5.000,0
"04/04/08","14:03:46",22459.000,"cc",28336.498,6.00,6,0.100,18929.000,0.200,1364.000,0.300,850.000,0.500,952.000,1.000,364.000,5.000,0
"04/04/08","14:03:52",22042.000,"cc",28330.238,6.00,6,0.100,18691.000,0.200,1275.000,0.300,809.000,0.500,903.000,1.000,364.000,5.000,0
"04/04/08","14:03:58",22291.000,"cc",28356.397,6.00,6,0.100,18893.000,0.200,1328.000,0.300,842.000,0.500,915.000,1.000,313.000,5.000,0
"04/04/08","14:04:04",22405.000,"cc",28351.512,6.00,6,0.100,18918.000,0.200,1328.000,0.300,832.000,0.500,988.000,1.000,339.000,5.000,0
"04/04/08","14:04:10",22421.000,"cc",28302.500,6.00,6,0.100,18934.000,0.200,1317.000,0.300,891.000,0.500,931.000,1.000,348.000,5.000,0
"04/04/08","14:04:16",22205.000,"cc",28373.451,6.00,6,0.100,18671.000,0.200,1341.000,0.300,880.000,0.500,964.000,1.000,349.000,5.000,0
"04/04/08","14:04:22",22403.000,"cc",28257.871,6.00,6,0.100,18909.000,0.200,1294.000,0.300,851.000,0.500,980.000,1.000,369.000,5.000,0
"04/04/08","14:04:28",22481.000,"cc",28235.404,6.00,6,0.100,18952.000,0.200,1395.000,0.300,845.000,0.500,978.000,1.000,311.000,5.000,0
"04/04/08","14:04:34",22360.000,"cc",28304.596,6.00,6,0.100,18834.000,0.200,1353.000,0.300,887.000,0.500,970.000,1.000,316.000,5.000,0
"04/04/08","14:04:40",22471.000,"cc",28363.545,6.00,6,0.100,19101.000,0.200,1288.000,0.300,837.000,0.500,923.000,1.000,322.000,5.000,0
"04/04/08","14:04:46",22669.000,"cc",28321.676,6.00,6,0.100,19066.000,0.200,1412.000,0.300,892.000,0.500,961.000,1.000,338.000,5.000,0
"04/04/08","14:04:52",22061.000,"cc",28296.344,6.00,6,0.100,18738.000,0.200,1255.000,0.300,820.000,0.500,917.000,1.000,331.000,5.000,0
"04/04/08","14:04:58",22292.000,"cc",28369.486,6.00,6,0.100,18860.000,0.200,1383.000,0.300,828.000,0.500,873.000,1.000,348.000,5.000,0
"04/04/08","14:05:04",22240.000,"cc",28356.031,6.00,6,0.100,18884.000,0.200,1314.000,0.300,823.000,0.500,926.000,1.000,293.000,5.000,0
"04/04/08","14:05:10",22744.000,"cc",28370.898,6.00,6,0.100,19208.000,0.200,1380.000,0.300,856.000,0.500,971.000,1.000,329.000,5.000,0
"04/04/08","14:05:16",22015.000,"cc",28272.369,6.00,6,0.100,18702.000,0.200,1294.000,0.300,801.000,0.500,899.000,1.000,319.000,5.000,0
"04/04/08","14:05:22",22523.000,"cc",28200.166,6.00,6,0.100,19091.000,0.200,1333.000,0.300,823.000,0.500,949.000,1.000,327.000,5.000,0
"04/04/08","14:05:28",22422.000,"cc",28385.918,6.00,6,0.100,18952.000,0.200,1325.000,0.300,831.000,0.500,963.000,1.000,351.000,5.000,0
"04/04/08","14:05:34",22383.000,"cc",28291.127,6.00,6,0.100,18951.000,0.200,1325.000,0.300,820.000,0.500,952.000,1.000,335.000,5.000,0
"04/04/08","14:05:40",21932.000,"cc",28351.221,6.00,6,0.100,18720.000,0.200,1267.000,0.300,754.000,0.500,870.000,1.000,321.000,5.000,0
"04/04/08","14:05:46",22261.000,"cc",28357.094,6.00,6,0.100,18884.000,0.200,1305.000,0.300,858.000,0.500,918.000,1.000,296.000,5.000,0
"04/04/08","14:05:52",22454.000,"cc",28331.498,6.00,6,0.100,19000.000,0.200,1325.000,0.300,841.000,0.500,950.000,1.000,338.000,5.000,0
"04/04/08","14:05:58",22345.000,"cc",28257.906,6.00,6,0.100,18919.000,0.200,1328.000,0.300,819.000,0.500,927.000,1.000,352.000,5.000,0
"04/04/08","14:06:04",22270.000,"cc",28358.863,6.00,6,0.100,18835.000,0.200,1321.000,0.300,880.000,0.500,915.000,1.000,319.000,5.000,0
"04/04/08","14:06:10",22275.000,"cc",28353.690,6.00,6,0.100,18804.000,0.200,1316.000,0.300,870.000,0.500,929.000,1.000,356.000,5.000,0
"04/04/08","14:06:16",22395.000,"cc",28327.494,6.00,6,0.100,19002.000,0.200,1326.000,0.300,767.000,0.500,940.000,1.000,360.000,5.000,0
"04/04/08","14:06:22",21995.000,"cc",28269.557,6.00,6,0.100,18573.000,0.200,1355.000,0.300,867.000,0.500,895.000,1.000,305.000,5.000,0
"04/04/08","14:06:28",21512.000,"cc",28300.867,6.00,6,0.100,18304.000,0.200,1303.000,0.300,764.000,0.500,848.000,1.000,293.000,5.000,0
"04/04/08","14:06:34",21543.000,"cc",28340.563,6.00,6,0.100,18338.000,0.200,1247.000,0.300,793.000,0.500,871.000,1.000,294.000,5.000,0
"04/04/08","14:06:40",21586.000,"cc",28381.641,6.00,6,0.100,18249.000,0.200,1293.000,0.300,789.000,0.500,899.000,1.000,356.000,5.000,0
"04/04/08","14:06:46",21511.000,"cc",28263.961,6.00,6,0.100,18216.000,0.200,1293.000,0.300,802.000,0.500,892.000,1.000,308.000,5.000,0
"04/04/08","14:06:52",21448.000,"cc",28324.080,6.00,6,0.100,18160.000,0.200,1293.000,0.300,821.000,0.500,845.000,1.000,329.000,5.000,0
"04/04/08","14:06:58",21668.000,"cc",28264.463,6.00,6,0.100,18345.000,0.200,1310.000,0.300,806.000,0.500,906.000,1.000,301.000,5.000,0
"04/04/08","14:07:04",21465.000,"cc",28267.051,6.00,6,0.100,18177.000,0.200,1290.000,0.300,812.000,0.500,868.000,1.000,318.000,5.000,0
"04/04/08","14:07:10",21962.000,"cc",28288.529,6.00,6,0.100,18481.000,0.200,1392.000,0.300,830.000,0.500,905.000,1.000,354.000,5.000,0
"04/04/08","14:07:16",22020.000,"cc",28334.391,6.00,6,0.100,18542.000,0.200,1353.000,0.300,824.000,0.500,971.000,1.000,330.000,5.000,0
"04/04/08","14:07:22",21636.000,"cc",28383.955,6.00,6,0.100,18139.000,0.200,1353.000,0.300,857.000,0.500,935.000,1.000,352.000,5.000,0
"04/04/08","14:07:28",21834.000,"cc",28343.777,6.00,6,0.100,18462.000,0.200,1315.000,0.300,841.000,0.500,912.000,1.000,304.000,5.000,0
"04/04/08","14:07:34",21676.000,"cc",28245.537,6.00,6,0.100,18351.000,0.200,1238.000,0.300,848.000,0.500,922.000,1.000,317.000,5.000,0
"04/04/08","14:07:40",21673.000,"cc",28367.418,6.00,6,0.100,18335.000,0.200,1273.000,0.300,802.000,0.500,941.000,1.000,322.000,5.000,0
"04/04/08","14:07:46",21636.000,"cc",28298.656,6.00,6,0.100,18179.000,0.200,1315.000,0.300,829.000,0.500,956.000,1.000,357.000,5.000,0
"04/04/08","14:07:52",21631.000,"cc",28316.680,6.00,6,0.100,18141.000,0.200,1356.000,0.300,867.000,0.500,953.000,1.000,314.000,5.000,0
"04/04/08","14:07:58",21154.000,"cc",28288.070,6.00,6,0.100,17999.000,0.200,1247.000,0.300,740.000,0.500,835.000,1.000,333.000,5.000,0
"04/04/08","14:08:04",21310.000,"cc",28328.607,6.00,6,0.100,18113.000,0.200,1237.000,0.300,780.000,0.500,881.000,1.000,299.000,5.000,0
"04/04/08","14:08:10",21363.000,"cc",28346.883,6.00,6,0.100,18221.000,0.200,1239.000,0.300,777.000,0.500,847.000,1.000,279.000,5.000,0
"04/04/08","14:08:16",21701.000,"cc",28322.215,6.00,6,0.100,18519.000,0.200,1259.000,0.300,755.000,0.500,868.000,1.000,300.000,5.000,0
"04/04/08","14:08:22",21610.000,"cc",28272.545,6.00,6,0.100,18271.000,0.200,1339.000,0.300,818.000,0.500,878.000,1.000,304.000,5.000,0
"04/04/08","14:08:28",21779.000,"cc",28302.565,6.00,6,0.100,18485.000,0.200,1274.000,0.300,831.000,0.500,881.000,1.000,308.000,5.000,0
"04/04/08","14:08:34",21810.000,"cc",28339.022,6.00,6,0.100,18215.000,0.200,1455.000,0.300,849.000,0.500,951.000,1.000,340.000,5.000,0
"04/04/08","14:08:40",21511.000,"cc",28367.516,6.00,6,0.100,18082.000,0.200,1309.000,0.300,876.000,0.500,918.000,1.000,326.000,5.000,0
"04/04/08","14:08:46",21682.000,"cc",28240.065,6.00,6,0.100,18034.000,0.200,1391.000,0.300,874.000,0.500,1004.000,1.000,379.000,5.000,0
"04/04/08","14:08:52",21918.000,"cc",28359.936,6.00,6,0.100,18638.000,0.200,1299.000,0.300,819.000,0.500,859.000,1.000,303.000,5.000,0
"04/04/08","14:08:58",21728.000,"cc",28337.250,6.00,6,0.100,18756.000,0.200,1201.000,0.300,729.000,0.500,763.000,1.000,279.000,5.000,0
"04/04/08","14:09:04",21587.000,"cc",28340.914,6.00,6,0.100,18701.000,0.200,1142.000,0.300,673.000,0.500,785.000,1.000,286.000,5.000,0
"04/04/08","14:09:10",22068.000,"cc",28272.475,6.00,6,0.100,19070.000,0.200,1181.000,0.300,740.000,0.500,801.000,1.000,276.000,5.000,0
"04/04/08","14:09:16",22261.000,"cc",28331.777,6.00,6,0.100,19204.000,0.200,1155.000,0.300,750.000,0.500,842.000,1.000,310.000,5.000,0
"04/04/08","14:09:22",21966.000,"cc",28413.719,6.00,6,0.100,18887.000,0.200,1222.000,0.300,772.000,0.500,786.000,1.000,299.000,5.000,0
"04/04/08","14:09:28",22122.000,"cc",28264.479,6.00,6,0.100,18896.000,0.200,1308.000,0.300,784.000,0.500,867.000,1.000,267.000,5.000,0
"04/04/08","14:09:34",22199.000,"cc",28326.990,6.00,6,0.100,19125.000,0.200,1148.000,0.300,743.000,0.500,872.000,1.000,311.000,5.000,0
"04/04/08","14:09:40",21819.000,"cc",28298.637,6.00,6,0.100,18960.000,0.200,1129.000,0.300,690.000,0.500,756.000,1.000,284.000,5.000,0
"04/04/08","14:09:46",21778.000,"cc",28301.199,6.00,6,0.100,18928.000,0.200,1122.000,0.300,714.000,0.500,751.000,1.000,263.000,5.000,0
"04/04/08","14:09:52",21845.000,"cc",28317.068,6.00,6,0.100,18860.000,0.200,1145.000,0.300,738.000,0.500,792.000,1.000,310.000,5.000,0
"04/04/08","14:09:58",21796.000,"cc",28279.994,6.00,6,0.100,18814.000,0.200,1161.000,0.300,760.000,0.500,804.000,1.000,257.000,5.000,0
"04/04/08","14:10:04",21780.000,"cc",28301.176,6.00,6,0.100,18775.000,0.200,1146.000,0.300,759.000,0.500,796.000,1.000,304.000,5.000,0
"04/04/08","14:10:10",21693.000,"cc",28351.303,6.00,6,0.100,18827.000,0.200,1135.000,0.300,733.000,0.500,734.000,1.000,264.000,5.000,0
"04/04/08","14:10:16",21932.000,"cc",28288.275,6.00,6,0.100,18927.000,0.200,1204.000,0.300,724.000,0.500,799.000,1.000,278.000,5.000,0
"04/04/08","14:10:22",21603.000,"cc",28324.315,6.00,6,0.100,18724.000,0.200,1125.000,0.300,699.000,0.500,776.000,1.000,279.000,5.000,0
"04/04/08","14:10:28",21750.000,"cc",28370.443,6.00,6,0.100,18834.000,0.200,1161.000,0.300,677.000,0.500,791.000,1.000,287.000,5.000,0
"04/04/08","14:10:34",21738.000,"cc",28269.594,6.00,6,0.100,18751.000,0.200,1165.000,0.300,712.000,0.500,808.000,1.000,302.000,5.000,0
"04/04/08","14:10:40",21797.000,"cc",28320.000,6.00,6,0.100,18760.000,0.200,1167.000,0.300,769.000,0.500,841.000,1.000,260.000,5.000,0
"04/04/08","14:10:46",21740.000,"cc",28348.773,6.00,6,0.100,18665.000,0.200,1250.000,0.300,732.000,0.500,798.000,1.000,295.000,5.000,0
"04/04/08","14:10:52",21614.000,"cc",28250.508,6.00,6,0.100,18609.000,0.200,1155.000,0.300,718.000,0.500,843.000,1.000,289.000,5.000,0
"04/04/08","14:10:58",21934.000,"cc",28343.541,6.00,6,0.100,18889.000,0.200,1161.000,0.300,754.000,0.500,819.000,1.000,311.000,5.000,0
"04/04/08","14:11:04",21739.000,"cc",28350.043,6.00,6,0.100,18754.000,0.200,1202.000,0.300,691.000,0.500,815.000,1.000,277.000,5.000,0
"04/04/08","14:11:10",21670.000,"cc",28254.844,6.00,6,0.100,18657.000,0.200,1203.000,0.300,766.000,0.500,773.000,1.000,271.000,5.000,0
"04/04/08","14:11:16",21795.000,"cc",28312.693,6.00,6,0.100,18674.000,0.200,1205.000,0.300,767.000,0.500,854.000,1.000,295.000,5.000,0
"04/04/08","14:11:22",22118.000,"cc",28306.381,6.00,6,0.100,18905.000,0.200,1252.000,0.300,791.000,0.500,831.000,1.000,339.000,5.000,0
"04/04/08","14:11:28",22079.000,"cc",28385.893,6.00,6,0.100,19106.000,0.200,1168.000,0.300,694.000,0.500,825.000,1.000,286.000,5.000,0
"04/04/08","14:11:34",21927.000,"cc",28327.565,6.00,6,0.100,18934.000,0.200,1218.000,0.300,756.000,0.500,760.000,1.000,259.000,5.000,0
"04/04/08","14:11:40",22116.000,"cc",28346.852,6.00,6,0.100,18961.000,0.200,1249.000,0.300,761.000,0.500,850.000,1.000,295.000,5.000,0
"04/04/08","14:11:46",21803.000,"cc",28292.523,6.00,6,0.100,18745.000,0.200,1182.000,0.300,781.000,0.500,795.000,1.000,299.000,5.000,1.000
"04/04/08","14:11:52",22167.000,"cc",28275.680,6.00,6,0.100,18825.000,0.200,1328.000,0.300,800.000,0.500,923.000,1.000,291.000,5.000,0
"04/04/08","14:11:58",22184.000,"cc",28288.900,6.00,6,0.100,18964.000,0.200,1284.000,0.300,794.000,0.500,807.000,1.000,335.000,5.000,0
"04/04/08","14:12:04",22466.000,"cc",28335.033,6.00,6,0.100,19095.000,0.200,1300.000,0.300,820.000,0.500,937.000,1.000,314.000,5.000,0
"04/04/08","14:12:10",22299.000,"cc",28352.389,6.00,6,0.100,18988.000,0.200,1282.000,0.300,838.000,0.500,884.000,1.000,307.000,5.000,0
"04/04/08","14:12:16",22013.000,"cc",28268.174,6.00,6,0.100,18765.000,0.200,1283.000,0.300,794.000,0.500,893.000,1.000,278.000,5.000,0
"04/04/08","14:12:22",22337.000,"cc",28287.106,6.00,6,0.100,19154.000,0.200,1264.000,0.300,779.000,0.500,838.000,1.000,302.000,5.000,0
"04/04/08","14:12:28",22081.000,"cc",28351.523,6.00,6,0.100,19036.000,0.200,1224.000,0.300,736.000,0.500,828.000,1.000,257.000,5.000,0
"04/04/08","14:12:34",22294.000,"cc",28321.713,6.00,6,0.100,19183.000,0.200,1203.000,0.300,797.000,0.500,839.000,1.000,271.000,5.000,1.000
"04/04/08","14:12:40",22289.000,"cc",28337.106,6.00,6,0.100,19014.000,0.200,1233.000,0.300,812.000,0.500,894.000,1.000,336.000,5.000,0
"04/04/08","14:12:46",22011.000,"cc",28261.264,6.00,6,0.100,18764.000,0.200,1237.000,0.300,828.000,0.500,856.000,1.000,326.000,5.000,0
"04/04/08","14:12:52",22383.000,"cc",28383.641,6.00,6,0.100,19246.000,0.200,1214.000,0.300,776.000,0.500,858.000,1.000,289.000,5.000,0
"04/04/08","14:12:58",22294.000,"cc",28382.051,6.00,6,0.100,19033.000,0.200,1197.000,0.300,807.000,0.500,975.000,1.000,282.000,5.000,0
"04/04/08","14:13:04",22211.000,"cc",28246.133,6.00,6,0.100,18975.000,0.200,1238.000,0.300,812.000,0.500,882.000,1.000,304.000,5.000,0
"04/04/08","14:13:10",22165.000,"cc",28255.074,6.00,6,0.100,18970.000,0.200,1251.000,0.300,778.000,0.500,854.000,1.000,312.000,5.000,0
"04/04/08","14:13:16",22401.000,"cc",28376.463,6.00,6,0.100,19268.000,0.200,1230.000,0.300,778.000,0.500,834.000,1.000,291.000,5.000,0
"04/04/08","14:13:22",22303.000,"cc",28336.492,6.00,6,0.100,19230.000,0.200,1227.000,0.300,778.000,0.500,778.000,1.000,290.000,5.000,0
"04/04/08","14:13:28",22347.000,"cc",28313.531,6.00,6,0.100,19352.000,0.200,1178.000,0.300,722.000,0.500,832.000,1.000,263.000,5.000,0
"04/04/08","14:13:34",22235.000,"cc",28318.047,6.00,6,0.100,19246.000,0.200,1225.000,0.300,671.000,0.500,787.000,1.000,306.000,5.000,0
"04/04/08","14:13:40",22299.000,"cc",28304.824,6.00,6,0.100,19243.000,0.200,1207.000,0.300,734.000,0.500,812.000,1.000,303.000,5.000,0
"04/04/08","14:13:46",22514.000,"cc",28317.002,6.00,6,0.100,19432.000,0.200,1211.000,0.300,755.000,0.500,819.000,1.000,297.000,5.000,0
"04/04/08","14:13:52",22286.000,"cc",28350.477,6.00,6,0.100,19319.000,0.200,1193.000,0.300,717.000,0.500,788.000,1.000,269.000,5.000,0
"04/04/08","14:13:58",22278.000,"cc",28301.365,6.00,6,0.100,19194.000,0.200,1183.000,0.300,725.000,0.500,862.000,1.000,314.000,5.000,0
"04/04/08","14:14:04",22176.000,"cc",28355.902,6.00,6,0.100,19245.000,0.200,1110.000,0.300,742.000,0.500,801.000,1.000,278.000,5.000,0
"04/04/08","14:14:10",21994.000,"cc",28314.115,6.00,6,0.100,19269.000,0.200,1101.000,0.300,639.000,0.500,735.000,1.000,250.000,5.000,0
"04/04/08","14:14:16",21896.000,"cc",28415.750,6.00,6,0.100,19094.000,0.200,1072.000,0.300,694.000,0.500,778.000,1.000,258.000,5.000,0
"04/04/08","14:14:22",22265.000,"cc",28258.549,6.00,6,0.100,19286.000,0.200,1145.000,0.300,729.000,0.500,804.000,1.000,301.000,5.000,0
"04/04/08","14:14:28",22128.000,"cc",28354.781,6.00,6,0.100,19337.000,0.200,1132.000,0.300,667.000,0.500,746.000,1.000,246.000,5.000,0
"04/04/08","14:14:34",22316.000,"cc",28226.600,6.00,6,0.100,19288.000,0.200,1173.000,0.300,728.000,0.500,836.000,1.000,291.000,5.000,0
"04/04/08","14:14:40",22527.000,"cc",28323.727,6.00,6,0.100,19372.000,0.200,1246.000,0.300,784.000,0.500,836.000,1.000,289.000,5.000,0
"04/04/08","14:14:46",22387.000,"cc",28272.328,6.00,6,0.100,19431.000,0.200,1213.000,0.300,727.000,0.500,737.000,1.000,279.000,5.000,0
"04/04/08","14:14:52",22476.000,"cc",28292.029,6.00,6,0.100,19447.000,0.200,1203.000,0.300,756.000,0.500,764.000,1.000,306.000,5.000,0
"04/04/08","14:14:58",22512.000,"cc",28366.863,6.00,6,0.100,19541.000,0.200,1183.000,0.300,735.000,0.500,764.000,1.000,289.000,5.000,0
"04/04/08","14:15:04",22146.000,"cc",28284.654,6.00,6,0.100,19260.000,0.200,1163.000,0.300,700.000,0.500,747.000,1.000,276.000,5.000,0
"04/04/08","14:15:10",22114.000,"cc",28270.131,6.00,6,0.100,19250.000,0.200,1108.000,0.300,699.000,0.500,799.000,1.000,258.000,5.000,0
"04/04/08","14:15:16",22569.000,"cc",28298.373,6.00,6,0.100,19654.000,0.200,1133.000,0.300,708.000,0.500,776.000,1.000,298.000,5.000,0
"04/04/08","14:15:22",22803.000,"cc",28376.578,6.00,6,0.100,19773.000,0.200,1184.000,0.300,721.000,0.500,815.000,1.000,310.000,5.000,0
"04/04/08","14:15:28",23077.000,"cc",28328.121,6.00,6,0.100,20062.000,0.200,1164.000,0.300,743.000,0.500,804.000,1.000,304.000,5.000,0
"04/04/08","14:15:34",22827.000,"cc",28271.736,6.00,6,0.100,20121.000,0.200,1059.000,0.300,664.000,0.500,714.000,1.000,269.000,5.000,0
"04/04/08","14:15:40",22895.000,"cc",28323.590,6.00,6,0.100,20191.000,0.200,1079.000,0.300,654.000,0.500,718.000,1.000,253.000,5.000,0
"04/04/08","14:15:46",22415.000,"cc",28356.863,6.00,6,0.100,19809.000,0.200,1048.000,0.300,623.000,0.500,677.000,1.000,258.000,5.000,0
"04/04/08","14:15:52",21979.000,"cc",28361.162,6.00,6,0.100,19401.000,0.200,1040.000,0.300,580.000,0.500,742.000,1.000,216.000,5.000,0
"04/04/08","14:15:58",22293.000,"cc",28329.369,6.00,6,0.100,19595.000,0.200,1064.000,0.300,655.000,0.500,734.000,1.000,245.000,5.000,0
"04/04/08","14:16:04",22291.000,"cc",28223.182,6.00,6,0.100,19502.000,0.200,1132.000,0.300,671.000,0.500,750.000,1.000,236.000,5.000,0
"04/04/08","14:16:10",22864.000,"cc",28335.565,6.00,6,0.100,20002.000,0.200,1150.000,0.300,720.000,0.500,756.000,1.000,236.000,5.000,0
"04/04/08","14:16:16",22869.000,"cc",28359.941,6.00,6,0.100,19913.000,0.200,1111.000,0.300,767.000,0.500,774.000,1.000,304.000,5.000,0
"04/04/08","14:16:22",22541.000,"cc",28380.342,6.00,6,0.100,19752.000,0.200,1118.000,0.300,664.000,0.500,734.000,1.000,273.000,5.000,0
"04/04/08","14:16:28",22417.000,"cc",28270.377,6.00,6,0.100,19725.000,0.200,1040.000,0.300,671.000,0.500,720.000,1.000,261.000,5.000,0
"04/04/08","14:16:34",22533.000,"cc",28369.908,6.00,6,0.100,19818.000,0.200,1112.000,0.300,638.000,0.500,698.000,1.000,267.000,5.000,0
"04/04/08","14:16:40",22763.000,"cc",28248.070,6.00,6,0.100,19829.000,0.200,1152.000,0.300,714.000,0.500,797.000,1.000,271.000,5.000,0